Tracking 31027 objects as of 19-Jul-2025
HD Live streaming from Space Station
objects crossing your sky now

CZ-4 DEB

Track CZ-4 DEB now!
10-day predictions


NORAD ID: 20900
Int'l Code: 1990-081BL
Perigee: 640.8 km
Apogee: 680.5 km
Inclination: 99.1 °
Period: 97.8 minutes
Semi major axis: 7031 km
RCS: 0.0514 m2 (small)
Launch date: September 3, 1990
Source: People's Republic of China (PRC)
Launch site: Taiyaun Space Center, China (TSC)

Note: This is SATELLITE DEBRIS
Your satellite tracking list
FLOCK 3K 7
Track 1 satellite(s)




NASA's NSSDC Master Catalog

Two Line Element Set (TLE):
1 20900U 90081BL  25199.35495384  .00010168  00000-0  16037-2 0  9991
2 20900  99.0517 242.2095 0028271 134.7519 238.1395 14.72369520798945
Source of the keplerian elements: AFSPC